Location: Izdebno
(52.6670°N, 16.2170°E)
Time: 03:57:23
(UTC+01:00)

N. Korean satellite - Visible Passes

Search period start: 10 December 2022 00:00
Search period end: 20 December 2022 00:00
Orbit: 420 x 452 km, 97.3° (Epoch: 09 December)

Date Brightness Start Highest point End Pass type
(mag) Time Alt. Az. Time Alt. Az. Time Alt. Az.
10 Dec 7.1 05:11:16 10° NNE 05:14:37 54° E 05:17:54 10° S visible
10 Dec 8.1 06:44:43 10° NNW 06:46:44 15° WNW 06:48:45 10° W visible
10 Dec 9.6 17:19:34 10° SW 17:21:52 17° W 17:24:11 10° NW visible
11 Dec 9.1 04:32:41 10° NE 04:35:15 20° E 04:37:47 10° SE visible
11 Dec 6.9 06:04:44 10° N 06:07:52 35° WNW 06:10:57 10° SW visible
11 Dec 7.8 16:39:10 10° S 16:42:27 43° W 16:45:45 10° NNW visible
12 Dec 6.4 05:25:21 10° NNE 05:28:45 81° ESE 05:32:05 10° SSW visible
12 Dec 8.4 06:59:35 10° NW 07:00:42 11° WNW 07:01:48 10° WNW visible
12 Dec 9.8 17:34:36 10° WSW 17:36:04 12° W 17:37:33 10° WNW visible
13 Dec 8.5 04:46:25 10° NE 04:49:22 27° E 04:52:16 10° SSE visible
13 Dec 7.4 06:18:57 10° N 06:21:48 25° WNW 06:24:36 10° WSW visible
13 Dec 8.6 16:53:26 10° SSW 16:56:29 30° W 16:59:35 10° NNW visible
14 Dec10.004:11:19ESE04:11:19ESE04:08:22ENEvisible
14 Dec 7.0 05:39:18 10° N 05:44:43 21° SSW 05:45:58 10° SSW visible
15 Dec 8.7 05:00:05 10° NNE 05:05:43 15° SSE 05:06:24 10° S visible
15 Dec 8.0 06:33:05 10° NNW 06:39:07 - WSW 06:34:36 17° NW visible
15 Dec 9.2 17:07:39 10° SSW 17:10:22 22° W 17:13:06 10° NW visible
16 Dec9.904:26:29SE04:26:29SE04:21:04NEvisible
16 Dec 8.1 05:53:08 10° N 05:59:52 - SSW 05:54:23 20° N visible
16 Dec 7.1 16:27:26 10° S 16:30:48 61° W 16:34:11 10° NNW visible
17 Dec 8.9 05:13:40 10° NNE 05:20:29 - S 05:14:14 14° NNE visible
17 Dec 8.5 06:47:12 10° NNW 06:47:33 11° NNW 06:47:33 11° NNW visible
17 Dec 9.6 17:21:54 10° SW 17:24:06 16° W 17:26:19 10° NW visible
18 Dec9.804:41:01SSE04:41:01SSE04:34:04NEvisible
18 Dec 8.6 06:06:50 10° N 06:14:22 - SW 06:07:25 14° N visible
18 Dec 7.9 16:41:07 10° S 16:44:22 42° W 16:47:38 10° NNW visible
19 Dec 9.1 05:27:07 10° NNE 05:34:48 - SSW 05:27:16 11° NNE visible
19 Dec 9.9 17:36:22 10° WSW 17:37:41 12° W 17:39:00 10° WNW visible
